Weather in Dausuz

Russia / Karachay-Cherkess Republic     43°47′46″N   41°32′54″E
temp.,
°C
wind,
m/s
gust,
m/s
humid.,
%
clouds,
%
prec.,
mm/h
press.,
hPa
HPBL,
m
16 april, fri
fri1600:00+4ssw22781 0.0 102026
03:00+3ssw227699 0.0 102034
06:00+3s22765 0.0 102038
09:00+11ne12465 0.0 1017903
12:00+16e043132 0.0 10152434
15:00+14w354384 0.0 10151497
18:00+11se1264100 0.4 1017209
21:00+6sw2273100 0.6 102042
17 april, sat
sat1700:00+6ssw347162 0.0 101874
03:00+6sw1277100 0.1 101968
06:00+5nnw1288100 0.0 102149
09:00+7nne2288100 0.1 1020527
12:00+4ne2397100 3.3 1022289
15:00+5nne2295100 3.6 1021403
18:00+4nne2298100 0.5 1022226
21:00+4nne1198100 0.6 1022129
18 april, sun
sun1800:00+4sse1195100 0.0 102159
03:00+4sse1192100 0.0 101921
06:00+6ssw1189100 0.0 101829
09:00+13wsw1467100 0.0 1015657
12:00+17nne0453100 0.1 10131266
15:00+11wnw118517 1.4 101552
18:00+13wsw117516 0.5 101559
21:00+8ssw3478100 0.6 101775
19 april, mon
mon1900:00+8ssw3479100 0.0 101773
03:00+8ssw3377100 0.0 101665
06:00+9ssw3475100 0.0 101686
09:00+15s145541 0.0 10141033
12:00+15ssw3556100 0.0 1014919
15:00+18ssw354898 0.0 10121337
18:00+15sse226181 0.0 101199
21:00+11s4564100 0.0 101097
20 april, tue
tue2000:00+12s3465100 0.1 100999
03:00+12sse3670100 0.1 1007177
06:00+10ssw337671 0.1 100760
09:00+17sse1656100 0.8 1005769
12:00+15s5870100 3.1 1007879
15:00+13nne4488100 4.4 1007628
18:00+6ene2397100 14.9 1012384
21:00+4wnw1295100 20.5 1016286